* Astronomy

Members Login
Username 
 
Password 
    Remember Me  
Post Info TOPIC: Asteroid 2012 BA77


L

Posts: 131433
Date:
Asteroid 2012 BA77
Permalink  
 


Orbital elements:
2012 BA77                                                Earth MOID = 0.0001 AU
Epoch 2012 Mar. 14.0 TT = JDT 2456000.5                 MPC
M  24.81521              (2000.0)            P               Q
n   0.26542991     Peri.  228.51034     +0.42434757     -0.90548024
a   2.3979280      Node   196.38320     +0.83687565     +0.39466305
e   0.6380086      Incl.    1.19615     +0.34578647     +0.15603401
P   3.71           H   25.9           G   0.15           U   7

MPEC 2012 - B82



__________________
Page 1 of 1  sorted by
 
Quick Reply

Please log in to post quick replies.



Create your own FREE Forum
Report Abuse
Powered by ActiveBoard